Location: Banios
(43.0451°N, 0.2335°E)
Time: 02:42:19
(UTC+00:00)

Courier 1B - Visible Passes

Search period start: 12 May 2021 00:00
Search period end: 22 May 2021 00:00
Orbit: 962 x 1209 km, 28.3° (Epoch: 11 May)

Date Brightness Start Highest point End Pass type
(mag) Time Alt. Az. Time Alt. Az. Time Alt. Az.
12 May 9.5 03:22:18 11° SSW 03:26:58 19° SSE 03:32:03 10° ESE visible
13 May 9.5 02:31:38 14° S 02:33:21 15° SSE 02:37:33 10° SE visible
14 May 9.7 01:40:58 12° SE 01:40:58 12° SE 01:42:26 10° SE visible
14 May 9.2 03:27:50 12° SSW 03:32:47 23° SSE 03:38:38 10° ESE visible
15 May 9.1 02:37:09 18° S 02:39:08 20° SSE 02:44:31 10° ESE visible
16 May 9.4 01:46:29 17° SSE 01:46:29 17° SSE 01:50:11 10° ESE visible
16 May 9.0 03:33:20 12° SW 03:38:40 26° S 03:44:49 10° ESE visible
17 May 8.9 02:42:41 21° SSW 02:45:00 24° S 02:50:54 10° ESE visible
18 May 9.1 01:52:02 21° SSE 01:52:02 21° SSE 01:56:51 10° ESE visible
18 May 8.9 03:38:54 11° SW 03:44:35 26° S 03:50:43 10° SE visible
19 May 9.6 01:01:25 13° SE 01:01:25 13° SE 01:02:38 10° ESE visible
19 May 8.8 02:48:18 21° SSW 02:50:55 26° S 02:56:56 10° SE visible
20 May 8.8 01:57:44 24° SSE 01:57:44 24° SSE 02:03:04 10° ESE visible
20 May 9.0 03:44:55 10° WSW 03:50:30 23° S 03:56:17 10° SE visible
21 May 9.4 01:07:16 16° SE 01:07:16 16° SE 01:09:07 10° ESE visible
21 May 8.8 02:54:09 20° SW 02:56:51 24° S 03:02:41 10° SE visible
